Location: Madrid
(40.4000°N, 3.6830°W)
Time: 21:08:58
(UTC+01:00)

ISS - Pass Details

Date: 24 March 2017
Orbit: 399 x 409 km, 51.6° (Epoch: 24 March)

Event Time Altitude Azimuth Distance (km) Brightness Sun altitude
Exits shadow 05:13:26 25° 132° (SE) 862 -2.0 -22.7°
Drops below altitude 10° 05:14:58 10° 131° (SE) 1,466 -0.7 -22.4°
Sets 05:17:02 0° 130° (SE) 2,323 0.4 -22.0°
